Temp
20 20 20 20 19 18 20 22 22 21 20 19 20 20 18 17 18 17 17 18 18 17 17 16 17 17 17 17 18 18 18 18 18 18 18 18 18 18 18 19 18 18 18 18 18 19 19 18 18
20 20 21 20 18 19 20 23 21 20 19 20 20 18 17 17 16 17 16 17 17 18 18 17 17 17 17 17 17 17 17 18 18 18 18 18 19 18 18 18 18 17 19 18 19 19 18 18 18
21 21 21 17 18 20 21 22 20 20 21 21 19 19 18 16 16 17 17 17 17 17 17 18 17 17 17 17 17 17 17 18 18 18 18 18 19 18 18 18 18 19 19 19 19 19 19 18 18
21 21 20 19 21 23 22 21 21 21 21 21 19 18 17 17 17 17 17 17 17 17 17 17 18 18 17 17 17 17 18 18 18 18 18 18 18 18 18 19 19 19 19 19 19 19 18 18 18
22 20 18 20 20 21 24 22 22 21 20 20 19 17 17 17 18 17 17 16 17 17 17 17 18 18 17 17 17 17 17 17 18 18 18 18 18 19 19 19 19 19 20 20 19 19 19 18 18
19 18 19 19 21 23 24 22 22 20 19 18 18 17 16 17 18 17 16 16 16 16 16 17 17 17 17 17 17 17 17 17 17 18 18 18 18 19 19 19 19 19 19 19 19 20 19 19 18
16 17 18 18 20 22 23 22 21 20 20 19 18 16 16 16 17 16 16 16 16 16 16 16 16 17 17 17 17 17 18 17 17 18 18 18 18 19 19 19 19 18 18 19 19 19 19 19 18
16 16 18 18 20 20 21 22 21 21 20 19 20 16 16 17 17 16 16 16 15 16 16 16 16 17 17 17 17 18 18 18 16 18 17 18 18 19 19 19 18 18 19 19 19 19 19 19 19
17 17 17 18 19 19 19 22 21 21 19 20 20 18 19 17 17 17 16 15 15 15 15 15 16 16 17 17 17 18 18 18 18 18 18 19 19 19 19 19 18 19 19 19 19 19 19 19 19
17 17 17 17 18 18 19 20 22 21 20 18 18 18 17 17 17 17 17 16 15 15 15 15 16 16 16 17 18 18 18 18 18 18 19 19 19 19 19 19 19 19 20 20 20 20 19 19 18
19 18 18 18 17 17 18 23 23 21 19 19 17 17 17 17 17 18 17 17 16 15 15 16 16 16 17 17 18 18 18 17 17 17 18 18 19 19 19 19 20 20 20 20 20 20 19 19 18
19 18 19 17 18 17 19 19 22 21 21 21 21 20 18 18 18 18 17 17 17 16 16 16 16 16 17 18 18 18 18 18 17 18 19 19 19 20 20 20 20 20 20 20 20 19 19 19 20
18 18 18 18 18 18 18 20 21 23 22 19 18 18 18 18 18 18 18 17 17 17 17 17 17 17 17 18 18 18 18 18 18 19 19 19 20 20 20 20 20 20 20 20 21 20 20 20 19
19 18 18 18 18 18 20 22 22 22 20 18 18 18 19 19 19 19 18 18 18 18 18 18 17 18 18 18 18 19 18 18 18 19 19 20 20 20 20 20 20 20 20 20 21 20 21 22 20
19 18 19 19 18 19 18 21 21 21 20 18 17 18 19 19 20 19 19 20 19 19 19 18 19 19 18 18 18 18 18 18 18 19 20 20 19 19 20 20 20 20 20 20 21 21 21 20 20
20 19 18 19 19 19 19 20 20 20 20 19 18 18 18 20 21 20 19 19 20 19 20 19 18 18 18 18 19 19 19 19 19 19 20 19 19 20 20 20 21 20 20 21 21 21 21 21 19
18 19 19 18 20 19 18 20 20 20 21 19 19 18 19 19 19 20 19 19 20 20 20 19 19 19 19 19 19 19 19 19 19 19 19 19 20 20 20 20 20 21 20 21 21 21 22 21 21
19 18 19 20 19 19 18 19 19 20 20 20 20 19 19 19 20 21 20 20 20 20 20 19 19 19 19 19 19 19 19 19 19 19 19 19 20 20 20 20 21 20 21 21 21 21 21 21 21
21 20 21 20 20 20 18 19 18 18 19 19 20 20 19 20 21 21 20 20 20 20 20 20 20 19 19 19 19 19 19 19 19 19 19 19 20 20 20 20 20 20 21 20 21 21 21 21 21
21 21 21 21 21 20 18 18 18 17 18 20 20 20 19 20 20 20 20 20 20 20 20 20 20 20 20 20 19 19 19 19 19 19 19 19 19 20 20 20 20 20 20 21 21 21 22 21 21
20 20 20 22 21 21 20 19 18 18 18 20 20 21 21 21 20 20 21 20 20 20 20 20 20 20 20 19 19 19 19 19 19 19 19 19 20 20 20 20 20 20 20 20 20 21 20 21 21
19 22 23 22 20 19 20 19 18 17 17 17 19 19 20 21 20 20 21 21 20 20 20 20 20 20 20 19 19 19 19 19 19 19 19 19 19 19 19 20 20 20 20 20 20 20 20 20 20
22 24 23 22 19 20 19 18 19 16 17 18 18 20 20 20 21 21 21 21 21 21 20 20 20 19 19 19 19 19 19 19 19 19 19 19 19 19 19 20 20 20 20 20 20 20 20 20 20
24 21 18 15 16 18 19 19 18 16 17 19 19 19 21 21 20 21 21 22 21 20 20 20 20 20 19 19 20 20 19 19 19 19 19 19 19 19 19 20 20 20 19 19 19 20 20 20 20
20 19 16 18 18 18 18 19 18 19 19 19 19 19 20 21 21 20 20 20 21 21 20 20 20 20 19 19 19 19 19 19 19 20 20 19 19 20 20 20 20 19 19 19 19 19 20 20 19
22 19 17 20 17 19 18 19 19 18 18 19 19 20 19 20 21 20 20 20 21 20 21 21 20 21 20 19 19 19 19 19 19 19 20 20 19 19 20 20 19 19 19 19 19 19 19 19 19
23 21 20 17 16 17 17 19 18 18 19 19 19 20 19 20 21 21 20 20 21 20 21 21 20 20 20 19 19 19 19 19 19 19 19 19 19 20 19 19 19 19 19 19 19 19 19 19 19
24 21 21 16 21 21 18 18 17 20 19 17 18 19 19 19 19 21 21 20 20 20 21 21 21 21 21 20 19 19 19 19 19 19 19 19 19 19 19 20 19 19 19 19 19 19 19 19 19
19 19 16 15 15 17 17 17 17 18 18 18 18 19 20 19 19 19 20 21 20 20 21 21 21 21 21 20 19 19 19 19 19 19 19 19 19 19 19 19 19 19 19 19 19 19 19 19 18
18 18 15 16 18 14 15 16 18 17 17 17 18 19 20 19 19 19 19 20 20 20 20 19 20 21 20 20 19 19 19 18 19 19 19 19 19 19 19 19 19 19 19 19 19 19 19 19 19
Height
1500 1500 1500 1500 1509 1509 1515 1513 1505 1509 1510 1509 1508 1512 1517 1518 1518 1526 1519 1522 1525 1528 1530 1532 1534 1535 1536 1538 1539 1539 1539 1541 1541 1542 1543 1544 1545 1546 1547 1549 1550 1550 1551 1552 1552 1553 1554 1554 1555
1500 1500 1500 1499 1514 1524 1518 1501 1509 1508 1510 1510 1511 1515 1517 1521 1520 1520 1522 1523 1527 1529 1531 1533 1535 1536 1537 1538 1539 1541 1541 1542 1543 1544 1545 1545 1546 1548 1549 1551 1552 1552 1553 1554 1554 1555 1556 1556 1558
1501 1500 1500 1504 1513 1519 1514 1504 1506 1508 1509 1510 1513 1516 1519 1523 1523 1523 1524 1525 1528 1530 1532 1534 1536 1537 1538 1539 1541 1542 1543 1544 1544 1545 1546 1548 1549 1550 1552 1552 1554 1554 1555 1556 1556 1556 1557 1559 1560
1500 1501 1503 1509 1511 1504 1505 1505 1507 1509 1511 1510 1513 1518 1522 1524 1524 1525 1525 1526 1528 1531 1533 1535 1537 1538 1540 1542 1544 1545 1545 1546 1547 1548 1549 1550 1552 1552 1552 1554 1555 1556 1557 1557 1557 1558 1561 1559 1560
1502 1503 1513 1511 1514 1507 1502 1506 1509 1510 1513 1513 1514 1522 1523 1526 1526 1527 1527 1528 1530 1532 1534 1536 1538 1540 1541 1543 1546 1547 1548 1549 1550 1551 1552 1553 1554 1554 1555 1556 1557 1557 1558 1559 1560 1561 1560 1562 1564
1505 1509 1520 1525 1514 1506 1504 1508 1511 1512 1513 1516 1519 1522 1527 1528 1529 1528 1529 1530 1531 1533 1534 1537 1539 1541 1543 1545 1547 1549 1550 1551 1552 1554 1554 1555 1557 1558 1559 1559 1559 1559 1560 1561 1562 1562 1563 1565 1566
1508 1512 1525 1524 1516 1509 1510 1512 1513 1512 1515 1519 1518 1524 1530 1530 1531 1531 1531 1531 1531 1533 1535 1538 1540 1542 1544 1547 1549 1551 1552 1553 1554 1555 1557 1558 1559 1561 1561 1561 1561 1561 1562 1563 1563 1565 1566 1567 1568
1511 1518 1522 1521 1520 1520 1514 1514 1518 1512 1516 1519 1519 1526 1530 1530 1532 1533 1533 1532 1533 1535 1537 1539 1540 1543 1545 1549 1552 1553 1554 1555 1556 1557 1558 1559 1561 1562 1563 1563 1563 1563 1564 1565 1566 1568 1569 1570 1571
1514 1518 1523 1524 1521 1522 1518 1517 1518 1517 1517 1520 1521 1521 1525 1529 1533 1534 1534 1534 1535 1536 1539 1541 1543 1544 1547 1551 1554 1555 1556 1557 1558 1559 1560 1561 1563 1564 1565 1565 1564 1564 1566 1567 1569 1571 1572 1573 1573
1515 1521 1519 1514 1518 1521 1520 1518 1517 1520 1522 1524 1522 1525 1529 1531 1532 1534 1536 1536 1537 1539 1541 1544 1546 1547 1550 1553 1555 1558 1558 1559 1561 1562 1563 1564 1565 1566 1567 1567 1566 1567 1568 1570 1571 1574 1575 1573 1573
1511 1516 1515 1518 1521 1519 1518 1515 1518 1522 1524 1519 1521 1524 1530 1532 1535 1536 1538 1539 1540 1541 1543 1545 1548 1550 1552 1555 1558 1559 1560 1562 1564 1564 1565 1566 1567 1568 1568 1568 1568 1569 1571 1572 1573 1575 1574 1571 1572
1512 1514 1513 1516 1518 1522 1521 1518 1518 1521 1520 1520 1522 1523 1528 1531 1534 1537 1540 1541 1542 1543 1545 1547 1549 1552 1553 1556 1559 1561 1563 1565 1566 1566 1566 1567 1568 1569 1569 1570 1569 1572 1572 1572 1573 1574 1574 1574 1572
1513 1515 1514 1517 1520 1520 1521 1519 1518 1519 1522 1525 1528 1530 1530 1534 1536 1538 1541 1544 1545 1546 1547 1548 1550 1554 1556 1558 1560 1563 1565 1567 1567 1568 1568 1569 1570 1570 1571 1571 1572 1572 1572 1572 1574 1574 1574 1573 1573
1512 1515 1517 1519 1519 1522 1519 1516 1519 1521 1523 1527 1529 1530 1533 1535 1538 1540 1541 1543 1546 1548 1549 1551 1554 1557 1558 1560 1562 1564 1566 1568 1568 1569 1570 1571 1571 1572 1573 1574 1573 1573 1573 1574 1574 1575 1576 1573 1570
1515 1519 1522 1522 1523 1524 1522 1521 1521 1525 1526 1529 1530 1532 1535 1537 1539 1540 1540 1543 1546 1549 1552 1553 1556 1558 1560 1563 1564 1566 1567 1568 1569 1570 1571 1572 1572 1572 1574 1575 1574 1574 1574 1574 1574 1575 1574 1573 1570
1518 1520 1529 1522 1523 1524 1527 1530 1523 1524 1528 1529 1532 1534 1535 1536 1538 1543 1544 1545 1547 1550 1553 1556 1558 1559 1560 1563 1565 1567 1567 1569 1570 1571 1571 1572 1572 1573 1574 1574 1575 1574 1574 1574 1575 1575 1573 1572 1569
1523 1529 1526 1526 1519 1522 1526 1525 1521 1523 1524 1528 1532 1535 1535 1538 1541 1542 1545 1546 1548 1551 1552 1555 1558 1559 1561 1563 1564 1566 1568 1570 1570 1571 1571 1572 1572 1573 1574 1575 1576 1575 1575 1574 1575 1575 1574 1573 1571
1526 1528 1522 1522 1519 1520 1525 1524 1521 1521 1524 1528 1529 1532 1535 1536 1537 1539 1543 1547 1549 1550 1553 1555 1558 1559 1561 1563 1565 1566 1567 1569 1571 1571 1572 1572 1573 1573 1573 1575 1575 1575 1575 1574 1575 1575 1575 1573 1570
1509 1517 1517 1515 1513 1518 1521 1523 1521 1522 1523 1525 1527 1528 1531 1533 1535 1539 1543 1546 1549 1550 1552 1554 1557 1559 1560 1562 1564 1566 1568 1569 1570 1570 1571 1572 1573 1574 1573 1574 1574 1574 1574 1576 1576 1576 1575 1573 1570
1509 1513 1516 1513 1511 1515 1520 1520 1517 1519 1520 1520 1524 1525 1526 1531 1534 1538 1541 1545 1547 1550 1551 1553 1556 1559 1560 1562 1564 1566 1567 1569 1569 1570 1571 1572 1573 1573 1573 1572 1573 1573 1574 1575 1576 1576 1575 1573 1571
1511 1514 1516 1511 1513 1512 1516 1522 1518 1514 1517 1518 1521 1523 1524 1527 1529 1532 1538 1542 1545 1548 1549 1551 1553 1557 1560 1562 1564 1566 1567 1568 1569 1570 1570 1571 1572 1573 1573 1572 1572 1573 1574 1576 1576 1576 1575 1573 1572
1519 1497 1500 1507 1519 1531 1514 1539 1518 1515 1515 1516 1517 1521 1522 1524 1526 1529 1534 1538 1541 1543 1547 1550 1552 1555 1559 1561 1563 1564 1566 1567 1569 1571 1570 1570 1571 1573 1572 1572 1572 1573 1574 1575 1576 1577 1575 1574 1573
1499 1489 1497 1505 1522 1522 1524 1535 1517 1515 1515 1509 1510 1512 1516 1521 1523 1525 1530 1534 1537 1541 1544 1547 1550 1553 1555 1559 1562 1563 1564 1566 1568 1570 1570 1570 1572 1572 1573 1573 1573 1574 1575 1576 1578 1577 1574 1573 1573
1485 1499 1509 1522 1529 1543 1520 1527 1524 1519 1510 1503 1504 1505 1508 1514 1518 1521 1526 1532 1535 1539 1543 1546 1548 1551 1554 1556 1559 1562 1564 1565 1566 1568 1569 1569 1570 1571 1572 1573 1573 1573 1575 1577 1577 1576 1574 1574 1574
1493 1511 1547 1547 1548 1545 1522 1527 1518 1506 1501 1501 1501 1502 1502 1508 1512 1517 1521 1525 1530 1535 1540 1543 1546 1548 1551 1553 1556 1560 1562 1564 1565 1566 1567 1569 1569 1570 1571 1572 1572 1574 1576 1576 1576 1576 1574 1574 1574
1497 1507 1536 1544 1556 1537 1522 1529 1512 1502 1500 1500 1500 1496 1498 1501 1508 1512 1515 1522 1526 1532 1536 1540 1543 1545 1548 1550 1553 1556 1559 1561 1564 1565 1566 1567 1568 1569 1570 1572 1573 1575 1574 1575 1575 1574 1574 1575 1574
1495 1506 1498 1527 1531 1536 1531 1515 1503 1498 1499 1499 1497 1493 1492 1496 1500 1506 1512 1519 1523 1531 1532 1535 1539 1542 1545 1548 1550 1552 1556 1558 1561 1564 1565 1566 1567 1568 1569 1570 1571 1572 1573 1573 1573 1573 1573 1574 1573
1485 1493 1512 1524 1529 1533 1532 1525 1521 1500 1500 1497 1495 1493 1494 1497 1499 1501 1505 1513 1519 1525 1528 1531 1534 1538 1542 1545 1547 1549 1552 1555 1558 1560 1562 1564 1565 1567 1568 1568 1568 1570 1571 1571 1572 1572 1572 1572 1572
1498 1504 1513 1521 1531 1539 1543 1532 1501 1498 1497 1496 1494 1492 1490 1493 1492 1495 1501 1506 1513 1520 1524 1527 1530 1534 1538 1541 1544 1546 1549 1552 1554 1556 1559 1562 1563 1564 1566 1566 1566 1568 1570 1570 1569 1570 1570 1570 1570
1496 1505 1513 1527 1527 1537 1537 1527 1494 1495 1494 1495 1493 1490 1486 1487 1490 1492 1496 1502 1508 1515 1520 1522 1527 1530 1534 1538 1541 1543 1546 1549 1551 1552 1555 1558 1560 1562 1563 1564 1565 1566 1567 1567 1567 1567 1568 1568 1568
Wind_Speed
2 7 6 3 3 4 2 3 3 3 3 3 9 6 9 13 1 2 16 14 18 16 15 13 12 14 14 15 15 12 11 10 14 15 12 13 14 13 11 11 11 11 10 10 10 10 10 11 12
2 8 1 2 4 3 3 1 3 3 9 19 18 11 9 4 3 14 14 16 14 15 15 14 13 12 14 15 14 12 10 10 15 17 13 12 12 12 13 13 12 11 12 11 10 9 9 11 12
3 8 2 3 2 3 3 2 10 16 13 3 6 10 5 3 11 16 18 15 15 15 14 15 14 12 12 14 14 12 11 12 15 14 12 11 12 13 13 12 11 10 10 10 9 9 9 12 11
3 4 5 3 4 1 4 7 13 12 7 8 15 6 7 2 12 11 16 13 14 17 15 16 14 12 14 14 12 12 12 14 14 13 13 12 12 12 11 11 10 10 9 9 9 9 12 12 11
10 6 4 2 3 4 3 15 19 4 5 10 7 4 5 6 8 12 13 11 12 16 17 15 15 13 13 14 14 13 13 13 12 13 14 12 10 11 10 11 11 11 10 10 9 9 11 11 10
7 4 3 3 3 2 4 17 11 13 14 15 13 8 4 11 11 11 9 9 10 14 18 17 16 15 13 13 14 13 12 11 11 11 11 10 11 9 10 12 12 11 11 11 10 9 9 11 9
6 3 2 3 7 5 6 13 9 17 14 6 14 4 11 15 11 9 7 7 10 14 18 19 18 17 16 14 13 13 11 10 9 10 9 10 8 9 11 11 11 10 9 9 10 9 10 10 10
7 3 1 2 4 4 8 0 10 16 6 20 17 7 8 19 13 8 8 11 13 15 16 20 17 19 17 15 14 12 9 10 8 10 10 8 9 9 10 10 9 7 8 8 8 8 10 10 11
7 5 4 2 0 2 12 3 11 3 19 3 5 20 23 22 16 13 14 12 12 16 16 16 17 17 16 16 15 11 9 9 11 11 9 10 10 9 9 9 7 7 8 8 8 6 7 7 6
4 2 8 7 1 2 14 7 9 7 14 11 22 20 24 25 19 15 15 14 14 17 16 15 14 16 18 18 17 9 9 9 9 10 10 10 10 9 8 6 6 6 7 7 6 4 3 4 4
5 4 5 7 3 6 9 15 4 18 6 24 30 31 28 25 19 15 15 13 13 16 17 16 15 16 21 20 16 10 11 10 9 8 8 8 8 8 7 6 7 5 5 4 2 3 7 9 12
4 6 8 8 5 4 2 3 7 17 9 26 29 30 30 27 20 17 16 15 14 15 17 17 17 18 21 21 14 12 10 6 8 7 8 7 6 8 9 8 5 2 2 1 3 3 5 8 13
4 4 6 15 11 3 9 9 8 14 16 25 29 29 28 24 18 15 15 15 16 16 17 18 20 20 22 21 16 11 10 10 8 6 6 4 7 9 8 3 1 1 3 2 1 3 6 8 15
7 10 10 10 10 4 2 3 9 15 26 27 31 31 28 25 21 18 18 17 18 16 18 19 19 18 17 16 12 13 13 9 5 2 4 3 3 3 3 3 2 2 2 3 2 6 7 8 8
16 6 5 7 8 3 4 1 7 16 27 27 28 31 31 22 23 21 22 22 22 20 17 19 20 18 15 14 11 13 10 7 3 1 3 2 2 3 4 5 6 4 4 3 2 7 10 7 3
1 3 3 4 8 4 3 4 4 4 23 27 27 27 31 24 23 20 23 23 22 19 19 16 15 14 14 11 10 11 13 9 5 3 4 6 5 1 7 5 8 5 4 3 4 6 8 4 4
3 2 4 3 12 3 3 3 6 6 17 26 27 26 33 30 28 21 24 25 24 19 19 19 17 14 13 14 9 8 8 9 5 2 5 5 3 4 5 6 11 2 2 2 1 6 6 6 3
4 3 4 4 8 5 5 7 3 7 15 18 28 29 28 32 33 23 25 25 28 21 18 19 18 13 14 12 9 7 9 7 7 5 2 2 4 3 6 6 8 7 7 4 1 2 3 7 7
4 4 3 2 7 5 7 4 7 9 7 12 12 29 33 32 30 26 27 24 27 24 20 18 20 16 17 16 11 8 10 6 5 4 3 1 4 2 4 5 5 5 8 7 1 1 3 4 6
5 3 2 1 9 5 6 9 8 9 8 15 14 19 29 32 30 32 28 28 30 26 23 21 17 16 15 13 10 13 9 8 8 6 5 3 4 2 3 6 7 4 5 5 4 2 2 3 3
4 6 4 4 5 3 3 4 4 5 9 15 16 17 20 25 32 35 32 32 30 29 27 24 20 17 14 12 15 15 14 9 9 7 8 6 3 2 4 2 7 7 4 2 1 3 2 2 4
5 12 7 6 5 3 5 3 4 4 7 8 20 20 19 20 25 32 37 35 34 31 27 25 23 20 16 15 16 15 14 11 9 8 6 5 5 3 3 2 4 7 3 2 1 3 1 3 5
11 9 13 5 4 2 1 2 5 2 7 8 14 27 24 19 25 30 34 36 35 32 30 25 20 24 21 17 16 15 13 13 10 9 8 6 7 6 5 3 3 4 2 4 4 1 1 3 4
5 8 8 6 3 2 6 5 4 3 5 4 14 28 34 28 20 23 32 32 36 35 31 28 22 24 25 19 17 19 16 15 13 12 12 10 6 7 8 6 5 4 5 7 6 4 3 4 3
6 6 3 3 1 6 1 5 7 5 6 5 7 21 32 37 27 23 27 37 39 37 34 29 24 21 25 22 20 22 17 19 15 13 15 14 10 7 7 6 4 4 7 8 7 6 4 5 3
5 8 6 6 4 5 1 4 4 4 8 6 10 14 26 34 33 32 32 33 40 39 37 31 28 20 25 24 23 23 20 17 18 13 15 15 12 10 8 9 9 8 7 4 4 6 6 4 5
3 4 4 6 3 3 2 4 6 4 3 0 5 3 24 33 39 34 34 30 30 32 36 32 30 26 23 25 24 25 24 22 21 17 16 16 15 13 12 16 17 13 9 8 8 5 6 8 8
4 4 3 4 3 2 3 4 4 1 2 6 8 10 8 24 29 36 35 37 31 32 31 29 32 28 24 25 23 26 27 23 21 20 19 19 15 13 11 12 15 15 12 10 13 10 8 7 9
5 4 6 5 3 4 1 5 5 5 4 5 8 12 17 16 26 29 34 36 32 33 30 26 28 30 25 26 23 22 24 26 24 23 21 18 17 18 16 15 13 14 13 10 11 12 13 12 10
5 3 4 4 3 1 2 5 2 5 6 7 12 14 17 15 20 23 29 34 33 32 22 27 29 30 29 27 25 23 23 24 25 27 23 22 17 15 13 13 13 16 15 16 13 15 14 15 14
Wind_Direction
61 349 344 150 62 74 38 34 104 106 354 358 94 120 112 35 9 178 135 157 161 171 168 162 168 172 166 163 167 160 130 119 140 138 134 131 137 132 125 119 116 117 113 113 109 112 113 106 106
340 334 337 102 83 64 279 54 90 103 128 99 83 96 53 56 56 137 149 150 159 170 166 159 160 167 166 166 163 153 135 132 143 141 122 125 132 131 125 117 115 117 121 116 114 115 116 118 106
62 19 55 72 116 148 151 55 123 141 140 162 119 71 85 99 121 139 140 139 163 165 167 161 158 158 162 160 161 163 145 132 143 148 134 126 131 129 120 121 117 112 116 124 132 133 127 121 112
213 45 56 64 31 4 156 146 134 144 86 80 106 68 84 159 159 152 156 143 159 172 177 170 167 164 166 152 137 137 135 135 136 139 137 136 129 126 118 115 109 107 117 130 137 131 131 136 122
38 47 23 20 12 307 225 153 156 146 89 117 87 108 79 161 156 152 160 171 175 185 189 183 181 176 172 158 144 140 129 129 133 132 135 128 127 122 116 103 102 105 110 112 111 128 157 151 134
53 51 29 356 302 50 117 142 117 101 98 105 97 100 79 150 141 153 173 199 206 203 188 187 184 182 176 165 150 143 135 138 134 134 132 130 120 118 105 104 100 99 96 96 107 131 148 164 150
105 88 92 275 271 241 117 121 146 123 120 107 124 83 137 164 160 166 189 194 180 178 178 183 181 175 164 171 155 150 144 130 138 141 131 124 124 118 111 102 101 98 98 103 116 128 142 154 161
97 60 118 33 338 45 25 270 174 118 94 141 121 161 169 175 166 156 149 144 160 164 168 180 178 172 166 157 148 144 144 142 140 143 141 134 130 128 120 115 109 105 98 98 109 110 133 147 155
118 148 153 243 270 24 333 57 172 126 136 163 213 158 165 164 162 150 141 144 148 167 163 172 174 170 163 152 148 137 144 141 146 154 141 136 136 134 131 124 119 108 102 104 113 102 127 154 166
157 126 177 180 155 335 319 285 131 133 149 102 115 146 158 165 168 159 152 146 145 155 163 164 165 169 162 158 152 128 129 138 135 128 123 133 138 142 141 136 118 106 101 97 98 92 61 340 303
160 175 165 198 100 336 316 129 131 150 155 158 154 160 167 172 176 167 153 144 140 149 164 156 157 162 164 161 156 144 138 130 127 128 131 141 153 150 148 131 118 114 95 84 76 36 334 300 284
104 98 141 139 187 310 81 329 215 176 195 174 164 165 169 178 183 177 159 148 152 150 151 156 160 161 162 163 169 163 141 156 150 139 130 137 157 153 137 124 111 82 52 152 74 22 4 13 11
91 152 160 149 167 218 300 248 200 203 185 174 167 171 173 181 186 179 176 160 153 156 154 155 153 153 154 164 171 163 160 148 134 118 123 120 156 151 137 122 55 145 302 313 348 27 11 1 345
132 137 141 175 199 252 302 26 163 153 159 166 172 178 178 183 191 173 176 169 160 161 155 157 156 155 156 162 170 172 160 150 144 187 176 133 185 234 208 186 224 223 302 347 121 4 8 315 286
135 106 164 166 171 224 185 27 141 131 161 170 181 185 186 186 186 186 177 160 162 157 160 154 152 150 154 155 163 175 180 173 168 149 209 218 200 262 231 249 204 210 293 328 293 7 355 2 257
290 65 126 210 177 205 226 186 182 178 173 175 191 192 193 194 188 184 186 177 164 164 161 172 176 173 181 175 176 174 194 175 157 171 128 159 171 344 242 218 205 218 285 271 345 10 354 340 28
8 198 176 186 195 126 196 198 197 164 166 179 188 192 203 203 200 188 189 186 180 176 177 176 174 179 175 159 165 163 185 182 202 162 118 187 186 210 243 226 177 211 232 184 47 18 9 13 3
178 211 231 187 194 175 179 261 174 187 146 163 190 197 201 209 202 184 184 188 187 179 179 189 187 193 189 188 191 199 201 204 194 159 125 255 214 289 205 187 190 208 206 193 264 322 346 11 47
165 193 194 139 171 166 197 228 223 197 199 159 162 190 194 207 204 194 190 188 191 185 171 167 187 197 198 202 207 213 195 190 188 224 260 268 222 232 192 201 211 205 203 186 188 5 265 35 40
224 234 248 182 170 168 174 222 230 181 213 199 178 176 184 206 202 203 197 193 191 187 186 178 179 186 187 198 236 204 208 217 221 240 201 232 184 111 147 230 194 147 149 174 241 285 226 353 358
218 215 176 183 163 215 128 295 187 234 212 219 202 193 187 193 207 204 199 202 195 194 193 193 193 189 187 198 199 211 213 215 205 204 223 250 200 141 100 149 177 123 143 142 168 261 68 19 10
206 211 206 159 131 229 150 276 267 216 226 200 222 207 189 192 197 201 202 201 204 202 198 199 201 203 192 193 212 215 219 217 216 217 241 225 222 206 120 72 162 207 192 132 216 215 27 7 6
227 171 200 119 93 331 276 85 268 109 239 218 208 224 214 200 193 190 206 207 207 207 204 204 213 208 204 209 214 215 221 214 229 231 227 214 206 214 199 149 150 168 230 267 271 252 287 347 346
85 80 47 53 69 346 235 156 276 215 231 248 210 217 218 209 204 204 204 208 210 210 209 208 212 216 212 215 216 218 225 218 225 215 224 227 224 215 221 214 207 214 239 256 275 294 278 291 304
74 70 27 13 28 227 110 120 244 246 244 236 279 231 217 213 203 211 210 208 206 208 209 211 213 220 217 221 229 220 215 225 216 227 226 224 231 216 201 209 209 239 274 262 270 291 282 259 244
171 152 154 184 189 235 114 224 251 223 296 254 265 274 214 207 209 202 200 207 207 205 208 212 215 221 227 231 233 221 220 215 216 232 221 218 226 229 227 228 231 245 256 261 273 259 240 241 253
198 186 180 105 5 75 248 295 296 248 169 212 4 350 205 206 212 207 205 198 197 214 215 212 217 220 225 226 230 224 224 226 226 236 226 224 231 230 246 247 242 238 244 233 266 285 267 262 270
112 150 49 9 144 251 308 289 244 276 346 328 340 345 233 216 215 215 213 206 204 216 215 216 222 222 228 227 234 229 230 229 234 234 234 231 227 231 241 250 244 239 233 240 243 251 264 280 271
18 23 56 110 106 159 212 263 222 223 224 256 302 307 304 250 213 210 217 209 204 211 216 215 214 219 225 231 233 233 227 232 233 229 229 225 234 246 250 253 230 225 236 234 253 252 263 264 275
87 100 108 117 226 58 142 269 273 246 249 254 284 300 300 269 229 211 213 209 195 201 200 214 221 214 224 235 232 237 233 234 231 227 230 231 231 242 240 236 242 230 229 241 251 259 261 270 266